Hays, KS

8:28 PM CDT on September 25, 2017 (GMT -0500)
Hays Regional

Weather History for KHYS - April, 2014

Change the Weather History Date:

Sunday, April 13, 2014

  Actual Average Record
Temperature  
Mean Temperature 49 °F -  
Max Temperature 66 °F 62 °F 91 °F (2006)
Min Temperature 32 °F 38 °F 19 °F (1997)
Degree Days  
Heating Degree Days 16    
Moisture  
Dew Point 38 °F    
Average Humidity 67    
Maximum Humidity 81    
Minimum Humidity 48    
Precipitation  
Precipitation 0.00 in - - ()
Sea Level Pressure  
Sea Level Pressure 29.69 in    
Wind  
Wind Speed 25 mph (North)    
Max Wind Speed 39 mph    
Max Gust Speed 51 mph    
Visibility 9 miles    
Events      
Averages and records for this station are not official NWS values.
T = Trace of Precipitation, MM = Missing Value Source: NWS Daily Summary

Daily Weather History Graph

Daily Weather History Graph

Search for Another Location

Airport or City:

Trip Planner

Search our weather history database for the weather conditions in past years. The results will help you decide how hot, cold, wet, or windy it might be!

Date:

Astronomy

Apr. 13, 2014 Rise Set
Actual Time 7:03 AM CDT 8:12 PM CDT
Civil Twilight 6:36 AM CDT 8:39 PM CDT
Nautical Twilight 6:03 AM CDT 9:12 PM CDT
Astronomical Twilight 5:29 AM CDT 9:46 PM CDT
Moon 6:52 PM CDT (4/13) 6:02 AM CDT (4/13)
Length of Visible Light 14h 03m
Length of Day
13h 08m
Waxing Gibbous, 97% of the Moon is Illuminated
Apr 13
Waxing Gibbous
Apr 15
Full
Apr 22
Last Quarter
Apr 29
New
May 6
First Quarter

Hourly Weather History & Observations

Time (CDT) Temp. Windchill Dew Point Humidity Pressure Visibility Wind Dir Wind Speed Gust Speed Precip Events Conditions
12:15 AM 66.2 °F - 48.2 °F 52% 29.52 in 10.0 mi NNE 21.9 mph - N/A   Clear
12:35 AM 66.2 °F - 48.2 °F 52% 29.54 in 10.0 mi NNE 19.6 mph - N/A   Clear
12:55 AM 66.2 °F - 48.2 °F 52% 29.53 in 10.0 mi NNE 16.1 mph 20.7 mph N/A   Partly Cloudy
1:15 AM 66.2 °F - 48.2 °F 52% 29.54 in 10.0 mi NE 19.6 mph - N/A   Partly Cloudy
1:35 AM 66.2 °F - 48.2 °F 52% 29.53 in 10.0 mi NE 23.0 mph - N/A   Clear
1:55 AM 64.4 °F - 48.2 °F 56% 29.53 in 10.0 mi NNE 20.7 mph 27.6 mph N/A   Clear
2:15 AM 64.4 °F - 46.4 °F 52% 29.52 in 10.0 mi NNE 20.7 mph 28.8 mph N/A   Clear
2:35 AM 62.6 °F - 42.8 °F 48% 29.53 in 10.0 mi NE 23.0 mph 28.8 mph N/A   Clear
2:55 AM 62.6 °F - 42.8 °F 48% 29.54 in 10.0 mi NNE 20.7 mph - N/A   Partly Cloudy
3:15 AM 60.8 °F - 42.8 °F 52% 29.53 in 10.0 mi NNE 21.9 mph - N/A   Clear
3:35 AM 60.8 °F - 42.8 °F 52% 29.52 in 10.0 mi NNE 23.0 mph 27.6 mph N/A   Clear
3:55 AM 59.0 °F - 42.8 °F 55% 29.53 in 10.0 mi North 24.2 mph 28.8 mph N/A   Clear
4:15 AM 59.0 °F - 41.0 °F 51% 29.51 in 10.0 mi NNE 25.3 mph 33.4 mph N/A   Clear
4:35 AM 57.2 °F - 42.8 °F 59% 29.52 in 10.0 mi NNE 23.0 mph 28.8 mph N/A   Clear
4:55 AM 57.2 °F - 42.8 °F 59% 29.50 in 10.0 mi NNE 24.2 mph 29.9 mph N/A   Clear
5:15 AM 57.2 °F - 42.8 °F 59% 29.50 in 10.0 mi NE 24.2 mph 29.9 mph N/A   Clear
5:35 AM 55.4 °F - 44.6 °F 67% 29.51 in 10.0 mi NNE 21.9 mph 29.9 mph N/A   Clear
5:55 AM 57.2 °F - 46.4 °F 67% 29.50 in 10.0 mi NNE 23.0 mph 29.9 mph N/A   Mostly Cloudy
6:15 AM 57.2 °F - 46.4 °F 67% 29.50 in 10.0 mi NNE 21.9 mph 29.9 mph N/A   Overcast
6:35 AM 57.2 °F - 44.6 °F 63% 29.52 in 10.0 mi NNE 25.3 mph 32.2 mph N/A   Overcast
6:55 AM 55.4 °F - 44.6 °F 67% 29.51 in 10.0 mi NNE 25.3 mph 33.4 mph N/A   Overcast
7:15 AM 55.4 °F - 42.8 °F 63% 29.52 in 9.0 mi NNE 20.7 mph 34.5 mph N/A   Overcast
7:35 AM 55.4 °F - 42.8 °F 63% 29.54 in 10.0 mi NNE 29.9 mph 34.5 mph N/A   Overcast
7:55 AM 53.6 °F - 42.8 °F 67% 29.55 in 10.0 mi NNE 27.6 mph 35.7 mph N/A   Overcast
8:15 AM 53.6 °F - 41.0 °F 62% 29.56 in 10.0 mi NNE 26.5 mph 34.5 mph N/A   Overcast
8:35 AM 51.8 °F - 39.2 °F 62% 29.56 in 10.0 mi NNE 32.2 mph 38.0 mph N/A   Overcast
8:55 AM 51.8 °F - 41.0 °F 67% 29.58 in 9.0 mi North 28.8 mph 42.6 mph N/A   Overcast
9:15 AM 50.0 °F - 41.0 °F 71% 29.58 in 9.0 mi NNE 27.6 mph 35.7 mph N/A   Overcast
9:35 AM 48.2 °F - 39.2 °F 71% 29.60 in 6.0 mi North 27.6 mph 32.2 mph N/A   Overcast
9:55 AM 46.4 °F 37.9 °F 39.2 °F 76% 29.63 in 8.0 mi North 25.3 mph 34.5 mph N/A   Overcast
10:35 AM 44.6 °F 34.7 °F 39.2 °F 81% 29.65 in 2.5 mi North 29.9 mph 39.1 mph N/A   Overcast
10:55 AM 44.6 °F 34.9 °F 39.2 °F 81% 29.65 in 3.0 mi North 28.8 mph 33.4 mph N/A   Overcast
11:15 AM 44.6 °F 34.4 °F 39.2 °F 81% 29.67 in 8.0 mi North 32.2 mph 35.7 mph N/A   Overcast
11:35 AM 44.6 °F 35.5 °F 37.4 °F 76% 29.68 in 10.0 mi North 25.3 mph 34.5 mph N/A   Overcast
11:55 AM 42.8 °F 32.3 °F 37.4 °F 81% 29.69 in 10.0 mi North 29.9 mph 35.7 mph N/A   Overcast
12:15 PM 42.8 °F 32.1 °F 37.4 °F 81% 29.70 in 10.0 mi North 31.1 mph 38.0 mph N/A   Overcast
12:35 PM 42.8 °F 32.5 °F 37.4 °F 81% 29.70 in 10.0 mi North 28.8 mph 40.3 mph N/A   Overcast
12:55 PM 42.8 °F 31.9 °F 35.6 °F 76% 29.70 in 10.0 mi North 32.2 mph 40.3 mph N/A   Overcast
1:15 PM 42.8 °F 32.1 °F 35.6 °F 76% 29.71 in 10.0 mi North 31.1 mph 38.0 mph N/A   Overcast
1:35 PM 42.8 °F 31.8 °F 35.6 °F 76% 29.71 in 10.0 mi North 33.4 mph 39.1 mph N/A   Overcast
1:55 PM 42.8 °F 32.5 °F 33.8 °F 70% 29.71 in 10.0 mi North 28.8 mph 44.9 mph N/A   Overcast
2:15 PM 42.8 °F 31.3 °F 33.8 °F 70% 29.72 in 10.0 mi North 36.8 mph 46.0 mph N/A   Overcast
2:35 PM 42.8 °F 31.6 °F 32.0 °F 66% 29.73 in 10.0 mi North 34.5 mph 40.3 mph N/A   Overcast
2:55 PM - - - N/A% 29.74 in 10.0 mi North 38.0 mph 44.9 mph N/A   Overcast
3:15 PM - - - N/A% 29.75 in 10.0 mi North 36.8 mph 49.5 mph N/A   Overcast
3:35 PM - - - N/A% 29.75 in 10.0 mi North 38.0 mph 50.6 mph N/A   Overcast
3:55 PM - - - N/A% 29.77 in 10.0 mi North 33.4 mph 46.0 mph N/A   Overcast
4:15 PM - - - N/A% 29.78 in 10.0 mi North 34.5 mph 40.3 mph N/A   Overcast
4:35 PM - - - N/A% 29.79 in 10.0 mi North 33.4 mph 42.6 mph N/A   Overcast
4:55 PM - - - N/A% 29.82 in 10.0 mi North 39.1 mph 48.3 mph N/A   Overcast
5:15 PM - - - N/A% 29.82 in 10.0 mi North 33.4 mph 43.7 mph N/A   Overcast
5:35 PM - - - N/A% 29.83 in 9.0 mi North 33.4 mph 42.6 mph N/A   Overcast
6:15 PM 33.8 °F 20.1 °F 26.6 °F 75% 29.84 in 5.0 mi North 29.9 mph 36.8 mph N/A   Overcast
6:35 PM 32.0 °F 18.9 °F 26.6 °F 80% 29.86 in 1.8 mi North 24.2 mph 35.7 mph N/A   Overcast
6:55 PM 33.8 °F 20.8 °F 26.6 °F 75% 29.88 in 8.0 mi North 26.5 mph 35.7 mph N/A   Overcast
7:15 PM 33.8 °F 19.6 °F 26.6 °F 75% 29.89 in 10.0 mi North 32.2 mph 36.8 mph N/A   Overcast
7:35 PM 33.8 °F 20.5 °F 26.6 °F 75% 29.90 in 10.0 mi North 27.6 mph 35.7 mph N/A   Overcast
8:35 PM 33.8 °F 19.2 °F 26.6 °F 75% 29.93 in 10.0 mi North 34.5 mph 41.4 mph N/A   Overcast
8:55 PM 33.8 °F 19.9 °F 26.6 °F 75% 29.95 in 10.0 mi North 31.1 mph 36.8 mph N/A   Overcast
9:15 PM 33.8 °F 20.8 °F 26.6 °F 75% 29.95 in 10.0 mi North 26.5 mph 35.7 mph N/A   Overcast
9:55 PM 33.8 °F 22.2 °F 26.6 °F 75% 29.99 in 10.0 mi NNW 20.7 mph 29.9 mph N/A   Overcast
10:35 PM 33.8 °F 20.8 °F 26.6 °F 75% 30.00 in 10.0 mi NNW 26.5 mph 31.1 mph N/A   Overcast
10:55 PM 33.8 °F 22.2 °F 26.6 °F 75% 30.02 in 10.0 mi NNW 20.7 mph 29.9 mph N/A   Overcast
11:15 PM 33.8 °F 22.5 °F 26.6 °F 75% 30.02 in 10.0 mi NNW 19.6 mph - N/A   Overcast
11:35 PM 35.6 °F 24.0 °F 24.8 °F 65% 30.02 in 10.0 mi NNW 23.0 mph 29.9 mph N/A   Overcast
11:55 PM 35.6 °F 24.2 °F 24.8 °F 65% 30.03 in 10.0 mi North 21.9 mph 29.9 mph N/A   Overcast